Station Historical Data
Daily Summary for March 18, 2017 Units:  English    Metric   Both
« Previous Day
Next Day »
Daily Weekly Monthly Yearly Custom
  High: Low: Average:
Temperature: 38.8 °F 29.4 °F 33.8 °F
Dew Point: 33.9 °F 16.9 °F 27.9 °F
Humidity: 92% 57% 80%
Wind Speed: 6.0mph 0.0mph 1.5mph
Wind Gust: 8.0mph - -
Wind- - ENE
Pressure: 30.15 in 29.99 in -
Precipitation: 0.00 in    
Historical Graphs
 
 
Tabular Data for March 18, 2017
Time Temperature Dew Point Pressure Wind Wind Speed Wind Gust Humidity Rainfall Rate (Hourly)
00:04 30.3 °F 17.3 °F 30.13 in ENE 1.0 mph 3.0 mph 58% 0.00 in
00:09 30.3 °F 17.3 °F 30.13 in ENE 1.0 mph 4.0 mph 58% 0.00 in
00:14 29.9 °F 16.9 °F 30.14 in ENE 1.0 mph 4.0 mph 58% 0.00 in
00:19 29.8 °F 17.2 °F 30.13 in Calm   2.0 mph 59% 0.00 in
00:24 29.8 °F 17.2 °F 30.13 in ENE 1.0 mph 2.0 mph 59% 0.00 in
00:29 29.7 °F 17.1 °F 30.13 in Calm   2.0 mph 59% 0.00 in
00:34 29.6 °F 17.0 °F 30.13 in ENE 1.0 mph 3.0 mph 59% 0.00 in
00:39 29.5 °F 16.9 °F 30.13 in ENE 1.0 mph 3.0 mph 59% 0.00 in
00:44 29.6 °F 17.4 °F 30.12 in Calm   3.0 mph 60% 0.00 in
00:49 29.6 °F 17.0 °F 30.12 in ENE 1.0 mph 3.0 mph 59% 0.00 in
00:54 29.5 °F 16.9 °F 30.12 in ENE 3.0 mph 3.0 mph 59% 0.00 in
00:59 29.7 °F 17.1 °F 30.12 in ENE 1.0 mph 3.0 mph 59% 0.00 in
01:04 29.7 °F 17.1 °F 30.12 in ENE 1.0 mph 3.0 mph 59% 0.00 in
01:09 29.7 °F 17.1 °F 30.11 in ENE 1.0 mph 3.0 mph 59% 0.00 in
01:14 29.6 °F 17.4 °F 30.12 in East 1.0 mph 3.0 mph 60% 0.00 in
01:19 29.5 °F 17.3 °F 30.11 in East 1.0 mph 3.0 mph 60% 0.00 in
01:24 29.4 °F 17.2 °F 30.11 in East 1.0 mph 5.0 mph 60% 0.00 in
01:29 29.6 °F 17.8 °F 30.11 in East 2.0 mph 5.0 mph 61% 0.00 in
01:34 29.7 °F 17.9 °F 30.10 in East 2.0 mph 6.0 mph 61% 0.00 in
01:39 29.6 °F 17.8 °F 30.10 in East 3.0 mph 5.0 mph 61% 0.00 in
01:44 29.7 °F 17.9 °F 30.10 in East 3.0 mph 7.0 mph 61% 0.00 in
01:49 29.9 °F 18.1 °F 30.10 in Calm   5.0 mph 61% 0.00 in
01:54 29.9 °F 18.1 °F 30.10 in SE 1.0 mph 6.0 mph 61% 0.00 in
01:59 30.0 °F 18.5 °F 30.10 in Calm   3.0 mph 62% 0.00 in
02:04 30.1 °F 18.6 °F 30.10 in Calm   3.0 mph 62% 0.00 in
02:09 30.2 °F 18.7 °F 30.10 in East 1.0 mph 3.0 mph 62% 0.00 in
02:14 30.3 °F 18.8 °F 30.10 in Calm   1.0 mph 62% 0.00 in
02:19 30.4 °F 18.9 °F 30.10 in East 1.0 mph 3.0 mph 62% 0.00 in
02:24 30.5 °F 18.6 °F 30.09 in East 1.0 mph 5.0 mph 61% 0.00 in
02:29 30.5 °F 19.0 °F 30.09 in East 2.0 mph 5.0 mph 62% 0.00 in
02:34 30.5 °F 18.6 °F 30.09 in East 2.0 mph 5.0 mph 61% 0.00 in
02:39 30.6 °F 19.1 °F 30.08 in ENE 2.0 mph 4.0 mph 62% 0.00 in
02:44 30.6 °F 19.1 °F 30.08 in ENE 2.0 mph 5.0 mph 62% 0.00 in
02:49 30.7 °F 19.2 °F 30.08 in Calm   5.0 mph 62% 0.00 in
02:54 30.8 °F 18.9 °F 30.07 in East 2.0 mph 6.0 mph 61% 0.00 in
02:59 30.9 °F 19.0 °F 30.07 in Calm   3.0 mph 61% 0.00 in
03:04 31.0 °F 19.1 °F 30.07 in East 1.0 mph 3.0 mph 61% 0.00 in
03:09 31.1 °F 19.2 °F 30.07 in ENE 1.0 mph 5.0 mph 61% 0.00 in
03:14 31.3 °F 19.0 °F 30.07 in ENE 1.0 mph 5.0 mph 60% 0.00 in
03:19 31.4 °F 19.1 °F 30.07 in ENE 2.0 mph 4.0 mph 60% 0.00 in
03:24 31.5 °F 19.2 °F 30.07 in ENE 2.0 mph 4.0 mph 60% 0.00 in
03:29 31.5 °F 19.2 °F 30.07 in East 2.0 mph 5.0 mph 60% 0.00 in
03:34 31.5 °F 19.2 °F 30.06 in East 1.0 mph 5.0 mph 60% 0.00 in
03:39 31.6 °F 19.3 °F 30.06 in Calm   1.0 mph 60% 0.00 in
03:44 31.5 °F 19.2 °F 30.06 in Calm     60% 0.00 in
03:49 31.7 °F 19.4 °F 30.06 in Calm   2.0 mph 60% 0.00 in
03:54 31.8 °F 19.5 °F 30.05 in East 1.0 mph 2.0 mph 60% 0.00 in
03:59 31.9 °F 19.6 °F 30.05 in Calm   2.0 mph 60% 0.00 in
04:04 32.1 °F 19.4 °F 30.05 in ENE 2.0 mph 3.0 mph 59% 0.00 in
04:09 32.2 °F 19.5 °F 30.04 in ENE 2.0 mph 3.0 mph 59% 0.00 in
04:14 32.4 °F 19.3 °F 30.04 in ENE 2.0 mph 7.0 mph 58% 0.00 in
04:19 32.6 °F 19.4 °F 30.04 in East 2.0 mph 7.0 mph 58% 0.00 in
04:24 32.8 °F 19.6 °F 30.03 in East 2.0 mph 7.0 mph 58% 0.00 in
04:29 33.0 °F 19.8 °F 30.03 in East 2.0 mph 7.0 mph 58% 0.00 in
04:34 33.0 °F 19.4 °F 30.03 in East 3.0 mph 6.0 mph 57% 0.00 in
04:39 33.1 °F 19.5 °F 30.03 in ESE 2.0 mph 7.0 mph 57% 0.00 in
04:44 33.2 °F 19.6 °F 30.03 in East 6.0 mph 7.0 mph 57% 0.00 in
04:49 33.0 °F 19.8 °F 30.03 in East 2.0 mph 7.0 mph 58% 0.00 in
04:54 33.0 °F 19.4 °F 30.03 in East 2.0 mph 6.0 mph 57% 0.00 in
04:59 33.0 °F 19.8 °F 30.02 in East 2.0 mph 5.0 mph 58% 0.00 in
05:04 33.0 °F 19.8 °F 30.03 in East 1.0 mph 3.0 mph 58% 0.00 in
05:09 33.0 °F 19.8 °F 30.03 in East 1.0 mph 2.0 mph 58% 0.00 in
05:14 33.0 °F 19.8 °F 30.03 in East 2.0 mph 5.0 mph 58% 0.00 in
05:19 33.2 °F 19.6 °F 30.03 in East 1.0 mph 5.0 mph 57% 0.00 in
05:24 33.2 °F 19.6 °F 30.04 in East 1.0 mph 5.0 mph 57% 0.00 in
05:29 33.1 °F 19.9 °F 30.04 in Calm   3.0 mph 58% 0.00 in
05:34 33.1 °F 19.9 °F 30.04 in SE 1.0 mph 3.0 mph 58% 0.00 in
05:39 33.2 °F 20.0 °F 30.04 in East 1.0 mph 3.0 mph 58% 0.00 in
05:44 33.1 °F 19.9 °F 30.04 in ESE 1.0 mph 5.0 mph 58% 0.00 in
05:49 33.1 °F 19.9 °F 30.04 in ESE 1.0 mph 2.0 mph 58% 0.00 in
05:54 33.0 °F 19.8 °F 30.04 in ESE 1.0 mph 3.0 mph 58% 0.00 in
05:59 33.0 °F 19.4 °F 30.04 in East 1.0 mph 5.0 mph 57% 0.00 in
06:04 32.9 °F 19.7 °F 30.04 in East 2.0 mph 5.0 mph 58% 0.00 in
06:09 32.8 °F 20.0 °F 30.03 in ENE 2.0 mph 5.0 mph 59% 0.00 in
06:14 32.8 °F 20.0 °F 30.03 in ENE 2.0 mph 5.0 mph 59% 0.00 in
06:19 32.6 °F 19.8 °F 30.03 in East 1.0 mph 3.0 mph 59% 0.00 in
06:24 32.6 °F 20.2 °F 30.03 in East 2.0 mph 5.0 mph 60% 0.00 in
06:29 32.4 °F 20.4 °F 30.02 in East 2.0 mph 5.0 mph 61% 0.00 in
06:34 32.4 °F 20.4 °F 30.02 in East 1.0 mph 3.0 mph 61% 0.00 in
06:39 32.4 °F 20.4 °F 30.02 in East 1.0 mph 3.0 mph 61% 0.00 in
06:44 32.5 °F 20.5 °F 30.02 in ESE 1.0 mph 3.0 mph 61% 0.00 in
06:49 32.5 °F 20.9 °F 30.02 in ENE 2.0 mph 3.0 mph 62% 0.00 in
06:54 32.6 °F 21.4 °F 30.02 in SE 1.0 mph 3.0 mph 63% 0.00 in
06:59 32.7 °F 21.5 °F 30.03 in ESE 1.0 mph 3.0 mph 63% 0.00 in
07:04 33.0 °F 22.5 °F 30.03 in SSE 1.0 mph 4.0 mph 65% 0.00 in
07:09 33.4 °F 24.7 °F 30.03 in South 4.0 mph 7.0 mph 70% 0.00 in
07:14 33.8 °F 26.4 °F 30.03 in South 3.0 mph 7.0 mph 74% 0.00 in
07:19 33.5 °F 27.1 °F 30.03 in SSE 2.0 mph 5.0 mph 77% 0.00 in
07:24 33.2 °F 27.4 °F 30.03 in SSE 1.0 mph 5.0 mph 79% 0.00 in
07:29 32.5 °F 27.0 °F 30.03 in SSE 2.0 mph 5.0 mph 80% 0.00 in
07:34 32.0 °F 26.8 °F 30.03 in SSE 1.0 mph 3.0 mph 81% 0.00 in
07:39 31.7 °F 27.1 °F 30.04 in SE 1.0 mph 3.0 mph 83% 0.00 in
07:44 31.7 °F 27.4 °F 30.03 in ESE 1.0 mph 2.0 mph 84% 0.00 in
07:49 31.4 °F 27.4 °F 30.03 in Calm   3.0 mph 85% 0.00 in
07:54 31.1 °F 27.1 °F 30.03 in Calm   2.0 mph 85% 0.00 in
07:59 30.8 °F 27.1 °F 30.03 in Calm   2.0 mph 86% 0.00 in
08:04 30.5 °F 27.1 °F 30.03 in Calm   2.0 mph 87% 0.00 in
08:09 30.5 °F 27.1 °F 30.03 in Calm   2.0 mph 87% 0.00 in
08:14 30.5 °F 27.4 °F 30.03 in East 1.0 mph 2.0 mph 88% 0.00 in
08:19 30.4 °F 27.3 °F 30.03 in Calm   2.0 mph 88% 0.00 in
08:24 30.4 °F 27.3 °F 30.03 in Calm   2.0 mph 88% 0.00 in
08:29 30.3 °F 27.2 °F 30.03 in East 1.0 mph 3.0 mph 88% 0.00 in
08:34 30.2 °F 27.3 °F 30.03 in NE 2.0 mph 3.0 mph 89% 0.00 in
08:39 30.1 °F 27.3 °F 30.03 in ENE 1.0 mph 3.0 mph 89% 0.00 in
08:44 30.1 °F 27.3 °F 30.03 in NE 1.0 mph 3.0 mph 89% 0.00 in
08:49 30.2 °F 27.3 °F 30.03 in NE 1.0 mph 2.0 mph 89% 0.00 in
08:54 30.4 °F 27.8 °F 30.03 in NE 1.0 mph 3.0 mph 90% 0.00 in
08:59 30.6 °F 28.0 °F 30.03 in Calm   3.0 mph 90% 0.00 in
09:04 30.9 °F 28.3 °F 30.03 in Calm     90% 0.00 in
09:09 31.0 °F 28.4 °F 30.03 in Calm     90% 0.00 in
09:14 31.2 °F 28.6 °F 30.03 in Calm     90% 0.00 in
09:19 31.6 °F 29.0 °F 30.02 in Calm     90% 0.00 in
09:24 31.7 °F 29.1 °F 30.02 in NE 1.0 mph 4.0 mph 90% 0.00 in
09:29 31.8 °F 29.2 °F 30.02 in NE 2.0 mph 4.0 mph 90% 0.00 in
09:34 31.7 °F 29.1 °F 30.02 in NE 3.0 mph 4.0 mph 90% 0.00 in
09:39 31.8 °F 29.2 °F 30.02 in NE 2.0 mph 4.0 mph 90% 0.00 in
09:44 32.0 °F 29.4 °F 30.02 in ENE 2.0 mph 4.0 mph 90% 0.00 in
09:49 32.1 °F 29.5 °F 30.03 in ENE 2.0 mph 6.0 mph 90% 0.00 in
09:54 32.2 °F 29.6 °F 30.02 in ENE 2.0 mph 6.0 mph 90% 0.00 in
09:59 32.3 °F 29.7 °F 30.02 in ENE 2.0 mph 5.0 mph 90% 0.00 in
10:04 32.4 °F 29.8 °F 30.03 in NE 2.0 mph 3.0 mph 90% 0.00 in
10:09 32.4 °F 29.8 °F 30.03 in NE 5.0 mph 5.0 mph 90% 0.00 in
10:14 32.5 °F 29.9 °F 30.02 in ENE 2.0 mph 6.0 mph 90% 0.00 in
10:19 32.6 °F 30.0 °F 30.02 in ENE 2.0 mph 4.0 mph 90% 0.00 in
10:24 32.7 °F 30.1 °F 30.03 in ENE 2.0 mph 4.0 mph 90% 0.00 in
10:29 33.0 °F 30.4 °F 30.02 in ENE 3.0 mph 6.0 mph 90% 0.00 in
10:34 33.1 °F 30.5 °F 30.02 in NE 2.0 mph 5.0 mph 90% 0.00 in
10:39 33.2 °F 30.6 °F 30.02 in ENE 1.0 mph 5.0 mph 90% 0.00 in
10:44 33.3 °F 30.4 °F 30.02 in ENE 3.0 mph 5.0 mph 89% 0.00 in
10:49 33.4 °F 30.5 °F 30.02 in ENE 3.0 mph 5.0 mph 89% 0.00 in
10:54 33.6 °F 30.7 °F 30.02 in ENE 2.0 mph 5.0 mph 89% 0.00 in
10:59 33.9 °F 31.0 °F 30.02 in East 2.0 mph 5.0 mph 89% 0.00 in
11:04 34.2 °F 31.0 °F 30.02 in NE 3.0 mph 6.0 mph 88% 0.00 in
11:09 34.4 °F 31.2 °F 30.02 in East 5.0 mph 5.0 mph 88% 0.00 in
11:14 34.7 °F 31.5 °F 30.02 in East 2.0 mph 5.0 mph 88% 0.00 in
11:19 34.7 °F 31.2 °F 30.02 in East 2.0 mph 5.0 mph 87% 0.00 in
11:24 34.5 °F 31.0 °F 30.02 in East 3.0 mph 8.0 mph 87% 0.00 in
11:29 34.5 °F 31.0 °F 30.02 in East 2.0 mph 8.0 mph 87% 0.00 in
11:34 34.6 °F 31.1 °F 30.02 in East 3.0 mph 5.0 mph 87% 0.00 in
11:39 34.6 °F 31.4 °F 30.02 in ENE 1.0 mph 5.0 mph 88% 0.00 in
11:44 34.8 °F 31.6 °F 30.01 in NE 1.0 mph 4.0 mph 88% 0.02 in
11:49 34.8 °F 31.3 °F 30.01 in East 2.0 mph 6.0 mph 87% 0.03 in
11:54 34.9 °F 31.4 °F 30.01 in ENE 2.0 mph 4.0 mph 87% 0.03 in
11:59 34.9 °F 31.7 °F 30.01 in Calm   5.0 mph 88% 0.04 in
12:04 35.0 °F 31.8 °F 30.01 in East 2.0 mph 6.0 mph 88% 0.05 in
12:09 35.1 °F 31.9 °F 30.01 in East 1.0 mph 5.0 mph 88% 0.05 in
12:14 35.2 °F 32.0 °F 30.01 in East 2.0 mph 6.0 mph 88% 0.06 in
12:19 35.2 °F 32.0 °F 30.01 in East 2.0 mph 6.0 mph 88% 0.06 in
12:24 35.4 °F 32.2 °F 30.01 in East 1.0 mph 5.0 mph 88% 0.07 in
12:29 35.5 °F 32.3 °F 30.01 in East 1.0 mph 4.0 mph 88% 0.07 in
12:34 35.6 °F 32.4 °F 30.01 in East 2.0 mph 5.0 mph 88% 0.07 in
12:39 35.5 °F 32.3 °F 30.01 in East 2.0 mph 5.0 mph 88% 0.08 in
12:44 35.8 °F 32.6 °F 30.01 in ESE 1.0 mph 4.0 mph 88% 0.06 in
12:49 36.1 °F 32.9 °F 30.01 in Calm   4.0 mph 88% 0.06 in
12:54 36.4 °F 33.2 °F 30.01 in East 3.0 mph 5.0 mph 88% 0.06 in
12:59 36.6 °F 33.1 °F 30.01 in East 2.0 mph 6.0 mph 87% 0.05 in
13:04 36.9 °F 33.1 °F 30.01 in ENE 1.0 mph 5.0 mph 86% 0.05 in
13:09 37.0 °F 33.2 °F 30.01 in ENE 2.0 mph 3.0 mph 86% 0.05 in
13:14 37.3 °F 33.5 °F 30.01 in East 2.0 mph 3.0 mph 86% 0.05 in
13:19 37.5 °F 33.4 °F 30.01 in East 1.0 mph 5.0 mph 85% 0.05 in
13:24 37.5 °F 33.4 °F 30.01 in ENE 1.0 mph 5.0 mph 85% 0.04 in
13:29 37.7 °F 33.6 °F 30.00 in ENE 1.0 mph 5.0 mph 85% 0.04 in
13:34 37.8 °F 33.4 °F 30.00 in ENE 1.0 mph 5.0 mph 84% 0.04 in
13:39 37.8 °F 33.4 °F 30.00 in ENE 2.0 mph 5.0 mph 84% 0.03 in
13:44 37.8 °F 33.4 °F 30.00 in East 1.0 mph 3.0 mph 84% 0.03 in
13:49 37.9 °F 33.5 °F 30.00 in East 1.0 mph 4.0 mph 84% 0.02 in
13:54 38.2 °F 33.5 °F 30.00 in ENE 1.0 mph 3.0 mph 83% 0.02 in
13:59 38.4 °F 33.7 °F 30.00 in NE 1.0 mph 4.0 mph 83% 0.02 in
14:04 38.5 °F 33.8 °F 30.00 in Calm   5.0 mph 83% 0.01 in
14:09 38.6 °F 33.6 °F 30.00 in NE 1.0 mph 3.0 mph 82% 0.01 in
14:14 38.8 °F 33.8 °F 30.00 in ENE 1.0 mph 5.0 mph 82% 0.00 in
14:19 38.8 °F 33.8 °F 29.99 in ENE 2.0 mph 4.0 mph 82% 0.00 in
14:24 38.8 °F 33.8 °F 30.00 in ENE 1.0 mph 3.0 mph 82% 0.00 in
14:29 38.6 °F 33.6 °F 30.00 in ENE 1.0 mph 4.0 mph 82% 0.00 in
14:34 38.7 °F 33.7 °F 30.00 in NE 2.0 mph 4.0 mph 82% 0.00 in
14:39 38.6 °F 33.6 °F 30.00 in NE 2.0 mph 5.0 mph 82% 0.00 in
14:44 38.5 °F 33.5 °F 30.00 in NE 2.0 mph 5.0 mph 82% 0.00 in
14:49 38.5 °F 33.8 °F 30.00 in NE 1.0 mph 2.0 mph 83% 0.00 in
14:54 38.6 °F 33.6 °F 30.00 in NE 1.0 mph 4.0 mph 82% 0.00 in
14:59 38.6 °F 33.6 °F 30.00 in NE 1.0 mph 3.0 mph 82% 0.00 in
15:04 38.7 °F 33.7 °F 30.00 in NE 1.0 mph 2.0 mph 82% 0.00 in
15:09 38.6 °F 33.6 °F 30.00 in NE 2.0 mph 3.0 mph 82% 0.00 in
15:14 38.6 °F 33.9 °F 30.00 in NE 1.0 mph 3.0 mph 83% 0.00 in
15:19 38.5 °F 33.8 °F 30.00 in NE 2.0 mph 4.0 mph 83% 0.00 in
15:24 38.4 °F 33.7 °F 30.00 in NE 1.0 mph 3.0 mph 83% 0.00 in
15:29 38.3 °F 33.9 °F 30.00 in NE 1.0 mph 3.0 mph 84% 0.00 in
15:34 38.0 °F 33.6 °F 30.00 in NE 1.0 mph 3.0 mph 84% 0.00 in
15:39 37.9 °F 33.8 °F 30.00 in NE 2.0 mph 3.0 mph 85% 0.00 in
15:44 37.8 °F 33.7 °F 30.00 in NE 2.0 mph 5.0 mph 85% 0.00 in
15:49 37.7 °F 33.6 °F 30.00 in NE 4.0 mph 4.0 mph 85% 0.00 in
15:54 37.9 °F 33.8 °F 30.00 in NE 2.0 mph 4.0 mph 85% 0.00 in
15:59 37.9 °F 33.8 °F 30.00 in NE 1.0 mph 3.0 mph 85% 0.00 in
16:04 37.9 °F 33.8 °F 30.01 in ENE 2.0 mph 4.0 mph 85% 0.00 in
16:09 37.7 °F 33.6 °F 30.01 in NE 4.0 mph 4.0 mph 85% 0.00 in
16:14 37.7 °F 33.9 °F 30.01 in ENE 1.0 mph 5.0 mph 86% 0.00 in
16:19 37.7 °F 33.9 °F 30.01 in ENE 1.0 mph 3.0 mph 86% 0.00 in
16:24 37.6 °F 33.8 °F 30.01 in NE 3.0 mph 5.0 mph 86% 0.00 in
16:29 37.2 °F 33.4 °F 30.01 in NE 2.0 mph 7.0 mph 86% 0.00 in
16:34 37.0 °F 33.2 °F 30.01 in NE 3.0 mph 7.0 mph 86% 0.01 in
16:39 36.9 °F 33.4 °F 30.02 in NE 3.0 mph 7.0 mph 87% 0.01 in
16:44 36.8 °F 33.3 °F 30.02 in NE 3.0 mph 5.0 mph 87% 0.01 in
16:49 36.7 °F 33.2 °F 30.01 in NE 2.0 mph 5.0 mph 87% 0.01 in
16:54 36.6 °F 33.4 °F 30.01 in NE 2.0 mph 4.0 mph 88% 0.01 in
16:59 36.5 °F 33.3 °F 30.01 in NE 2.0 mph 4.0 mph 88% 0.01 in
17:04 36.4 °F 33.2 °F 30.02 in NE 2.0 mph 4.0 mph 88% 0.01 in
17:09 36.2 °F 33.0 °F 30.02 in NE 2.0 mph 5.0 mph 88% 0.02 in
17:14 36.1 °F 32.9 °F 30.02 in NNE 1.0 mph 3.0 mph 88% 0.02 in
17:19 36.0 °F 33.1 °F 30.02 in Calm   2.0 mph 89% 0.02 in
17:24 36.0 °F 33.1 °F 30.02 in NE 2.0 mph 5.0 mph 89% 0.02 in
17:29 36.0 °F 33.1 °F 30.02 in ENE 2.0 mph 5.0 mph 89% 0.02 in
17:34 36.1 °F 33.2 °F 30.02 in NE 3.0 mph 5.0 mph 89% 0.01 in
17:39 36.1 °F 33.2 °F 30.02 in NE 3.0 mph 5.0 mph 89% 0.02 in
17:44 36.0 °F 33.1 °F 30.03 in NE 1.0 mph 5.0 mph 89% 0.02 in
17:49 36.0 °F 33.1 °F 30.03 in NE 1.0 mph 5.0 mph 89% 0.02 in
17:54 36.0 °F 33.1 °F 30.03 in NE 2.0 mph 4.0 mph 89% 0.02 in
17:59 35.9 °F 33.0 °F 30.03 in NE 2.0 mph 4.0 mph 89% 0.02 in
18:04 36.0 °F 33.1 °F 30.03 in NE 2.0 mph 4.0 mph 89% 0.02 in
18:09 35.9 °F 33.0 °F 30.04 in NE 2.0 mph 4.0 mph 89% 0.01 in
18:14 35.8 °F 32.9 °F 30.04 in NE 2.0 mph 3.0 mph 89% 0.01 in
18:19 35.8 °F 33.2 °F 30.04 in NE 2.0 mph 3.0 mph 90% 0.01 in
18:24 35.7 °F 33.1 °F 30.04 in NE 2.0 mph 3.0 mph 90% 0.01 in
18:29 35.7 °F 33.1 °F 30.04 in NE 2.0 mph 3.0 mph 90% 0.01 in
18:34 35.6 °F 33.0 °F 30.05 in NE 2.0 mph 5.0 mph 90% 0.02 in
18:39 35.6 °F 33.0 °F 30.05 in NE 2.0 mph 4.0 mph 90% 0.01 in
18:44 35.5 °F 32.9 °F 30.05 in NE 2.0 mph 4.0 mph 90% 0.01 in
18:49 35.5 °F 32.9 °F 30.05 in NE 2.0 mph 3.0 mph 90% 0.01 in
18:54 35.4 °F 32.8 °F 30.06 in NE 3.0 mph 3.0 mph 90% 0.01 in
18:59 35.4 °F 32.8 °F 30.06 in NE 2.0 mph 4.0 mph 90% 0.01 in
19:04 35.3 °F 32.7 °F 30.06 in NE 4.0 mph 7.0 mph 90% 0.01 in
19:09 35.2 °F 32.6 °F 30.06 in NE 2.0 mph 7.0 mph 90% 0.01 in
19:14 35.1 °F 32.5 °F 30.07 in NNE 2.0 mph 4.0 mph 90% 0.01 in
19:19 35.0 °F 32.4 °F 30.07 in NNE 2.0 mph 4.0 mph 90% 0.01 in
19:24 34.9 °F 32.5 °F 30.07 in NNE 2.0 mph 4.0 mph 91% 0.01 in
19:29 34.8 °F 32.4 °F 30.07 in NNE 2.0 mph 4.0 mph 91% 0.01 in
19:34 34.8 °F 32.4 °F 30.08 in NNE 2.0 mph 4.0 mph 91% 0.00 in
19:39 34.7 °F 32.3 °F 30.08 in NE 2.0 mph 4.0 mph 91% 0.00 in
19:44 34.6 °F 32.2 °F 30.08 in NNE 2.0 mph 4.0 mph 91% 0.00 in
19:49 34.5 °F 32.1 °F 30.08 in NNE 2.0 mph 5.0 mph 91% 0.00 in
19:54 34.4 °F 32.0 °F 30.08 in NNE 2.0 mph 5.0 mph 91% 0.00 in
19:59 34.3 °F 31.9 °F 30.08 in NE 2.0 mph 3.0 mph 91% 0.00 in
20:04 34.3 °F 31.9 °F 30.08 in ENE 3.0 mph 4.0 mph 91% 0.00 in
20:09 34.3 °F 31.9 °F 30.09 in NE 2.0 mph 5.0 mph 91% 0.00 in
20:14 34.2 °F 31.8 °F 30.09 in NE 2.0 mph 5.0 mph 91% 0.00 in
20:19 34.2 °F 31.8 °F 30.09 in NE 2.0 mph 4.0 mph 91% 0.00 in
20:24 34.1 °F 31.7 °F 30.09 in NNE 2.0 mph 5.0 mph 91% 0.00 in
20:29 34.1 °F 31.7 °F 30.09 in NE 2.0 mph 5.0 mph 91% 0.00 in
20:34 34.0 °F 31.6 °F 30.09 in NE 1.0 mph 4.0 mph 91% 0.00 in
20:39 34.0 °F 31.6 °F 30.10 in NE 2.0 mph 3.0 mph 91% 0.00 in
20:44 34.0 °F 31.9 °F 30.10 in NE 2.0 mph 5.0 mph 92% 0.00 in
20:49 33.9 °F 31.8 °F 30.10 in NE 2.0 mph 5.0 mph 92% 0.00 in
20:54 33.9 °F 31.8 °F 30.10 in NE 2.0 mph 4.0 mph 92% 0.00 in
20:59 33.9 °F 31.6 °F 30.10 in NE 3.0 mph 3.0 mph 91% 0.00 in
21:04 33.9 °F 31.8 °F 30.11 in Calm   4.0 mph 92% 0.00 in
21:09 33.9 °F 31.8 °F 30.11 in NNE 3.0 mph 3.0 mph 92% 0.00 in
21:14 33.9 °F 31.8 °F 30.11 in NE 1.0 mph 3.0 mph 92% 0.00 in
21:19 33.8 °F 31.7 °F 30.11 in NNE 1.0 mph 3.0 mph 92% 0.00 in
21:24 33.9 °F 31.8 °F 30.11 in NNE 1.0 mph 3.0 mph 92% 0.00 in
21:29 33.8 °F 31.7 °F 30.11 in Calm   3.0 mph 92% 0.00 in
21:34 33.8 °F 31.7 °F 30.11 in NE 2.0 mph 7.0 mph 92% 0.00 in
21:39 33.8 °F 31.7 °F 30.11 in NE 2.0 mph 5.0 mph 92% 0.00 in
21:44 33.8 °F 31.7 °F 30.11 in Calm   4.0 mph 92% 0.00 in
21:49 33.8 °F 31.7 °F 30.12 in NE 2.0 mph 4.0 mph 92% 0.00 in
21:54 33.8 °F 31.7 °F 30.12 in NE 2.0 mph 4.0 mph 92% 0.00 in
21:59 33.8 °F 31.7 °F 30.12 in NE 2.0 mph 4.0 mph 92% 0.00 in
22:04 33.8 °F 31.7 °F 30.12 in NE 2.0 mph 4.0 mph 92% 0.00 in
22:09 33.8 °F 31.7 °F 30.12 in Calm   2.0 mph 92% 0.00 in
22:14 33.8 °F 31.7 °F 30.12 in NE 1.0 mph 2.0 mph 92% 0.00 in
22:19 33.8 °F 31.7 °F 30.12 in NE 1.0 mph 2.0 mph 92% 0.00 in
22:24 33.8 °F 31.7 °F 30.12 in NNE 1.0 mph 3.0 mph 92% 0.00 in
22:29 33.8 °F 31.7 °F 30.12 in Calm   2.0 mph 92% 0.00 in
22:34 33.8 °F 31.7 °F 30.13 in NNE 1.0 mph 3.0 mph 92% 0.00 in
22:39 33.8 °F 31.7 °F 30.13 in Calm   3.0 mph 92% 0.00 in
22:44 33.8 °F 31.7 °F 30.13 in NNE 2.0 mph 2.0 mph 92% 0.00 in
22:49 33.9 °F 31.8 °F 30.13 in NNE 1.0 mph 2.0 mph 92% 0.00 in
22:54 33.8 °F 31.7 °F 30.13 in NNE 2.0 mph 5.0 mph 92% 0.00 in
22:59 33.8 °F 31.7 °F 30.13 in NE 2.0 mph 5.0 mph 92% 0.00 in
23:04 33.8 °F 31.7 °F 30.13 in NE 2.0 mph 4.0 mph 92% 0.00 in
23:09 33.7 °F 31.6 °F 30.13 in NNE 2.0 mph 4.0 mph 92% 0.00 in
23:14 33.7 °F 31.6 °F 30.13 in Calm   3.0 mph 92% 0.00 in
23:19 33.7 °F 31.6 °F 30.13 in NE 1.0 mph 4.0 mph 92% 0.00 in
23:24 33.7 °F 31.6 °F 30.13 in NNE 2.0 mph 4.0 mph 92% 0.00 in
23:29 33.6 °F 31.5 °F 30.13 in NNE 2.0 mph 2.0 mph 92% 0.00 in
23:34 33.6 °F 31.5 °F 30.14 in North 2.0 mph 3.0 mph 92% 0.00 in
23:39 33.6 °F 31.5 °F 30.14 in North 1.0 mph 3.0 mph 92% 0.00 in
23:44 33.6 °F 31.5 °F 30.14 in North 2.0 mph 2.0 mph 92% 0.00 in
23:49 33.5 °F 31.4 °F 30.15 in North 1.0 mph 3.0 mph 92% 0.00 in
23:54 33.5 °F 31.4 °F 30.15 in North 1.0 mph 3.0 mph 92% 0.00 in
23:59 33.5 °F 31.4 °F 30.15 in North 1.0 mph 3.0 mph 92% 0.00 in
Buffalo, New York, USA
Compliments of Weather Underground - 2.5 mb